Tracking 28790 objects as of 18-Apr-2024
HD Live streaming from Space Station
objects crossing your sky now

EPSILON R/B

Track EPSILON R/B now!
10-day predictions


NORAD ID: 43153
Int'l Code: 2018-007B
Perigee: 376.2 km
Apogee: 390.9 km
Inclination: 97.3 °
Period: 92.1 minutes
Semi major axis: 6754 km
RCS: Unknown
Launch date: January 17, 2018
Source: Japan (JPN)
Launch site: KAGOSHIMA SPACE CENTER UNIVERSITY OF TOKYO (KSCUT)

Note: This is a ROCKET BODY
Your satellite tracking list
Your tracking list is empty




NASA's NSSDC Master Catalog

Two Line Element Set (TLE):
1 43153U 18007B   24109.05266553  .00095723  00000-0  10079-2 0  9995
2 43153  97.3392 136.0190 0010872  19.9401 340.2281 15.63901823349333
Source of the keplerian elements: AFSPC